Retour au catalogue

FENGYUN 1C DEB

LostPO
NORAD 46445·DEBRIS·🇨🇳 China

Lancé May 10, 1999 depuis Taiyuan Satellite Launch Center

Loading…

Prochains Passages (prochaines 24 heures)

TLE

PériméSource: Space-Track

Époque: Apr 8, 2024, 14:35 UTC

1 46445U 99025EZA 24099.60796937  .00004808  00000-0  28525-2 0  9993
2 46445  98.0172  37.3827 0109085 155.7294 204.9070 14.04987918714801

Suivez FENGYUN 1C DEB en temps réel avec AllMySat

Download on the App Store